Regional Weather Roundup
Issued by NWS Memphis, TN

Home | Current Version | Previous Version | Text Only | Print | Product List | Glossary On
Versions: 1 2 3 4 5 6 7 8 9 10 11 12 13 14 15 16 17 18 19 20 21 22 23 24 25 26 27 28 29 30 31 32 33 34 35 36 37 38 39 40 41 42 43 44 45 46 47 48 49 50
782
ASUS44 KMEG 090510
RWRMEG
MEMPHIS CWA HOURLY WEATHER ROUNDUP
NATIONAL WEATHER SERVICE MEMPHIS TN
1100 PM CST MON FEB 08 2016

...WEST TENNESSEE...

CITY           SKY/WX    TMP DP  RH WIND       PRES   REMARKS
MEMPHIS INTL   CLOUDY    37  19  48 NW9       30.00S WCI  30
NWS MEMPHIS      N/A     35 N/A N/A MISG        N/A
JACKSON        CLOUDY    33  20  58 NW14      29.95F WCI  23
DYERSBURG      CLOUDY    32  18  55 NW15G22   29.98S WCI  22
UNION CITY     CLOUDY    28  19  69 NW9       29.93S WCI  20
PARIS          CLOUDY    27  18  69 NW7       29.91F WCI  19


...EASTERN ARKANSAS...

CITY           SKY/WX    TMP DP  RH WIND       PRES   REMARKS
JONESBORO      MOCLDY    33  21  61 NW15G24   29.99F WCI  23
WEST MEMPHIS   CLOUDY    35  23  61 NW5       30.01F HAZE    WCI  31
BATESVILLE     CLOUDY    36  12  38 W13G18    30.02S WCI  27
NEWPORT        CLOUDY    36  18  48 N12       30.02F WCI  28
WALNUT RIDGE   PTCLDY    32  18  55 NW18      30.01S WCI  20
BLYTHEVILLE    CLOUDY    34  20  56 NW14      29.98F WCI  25
SEARCY         PTCLDY    36  16  44 NW9       30.06S WCI  29
STUTTGART      CLEAR     36  21  55 NW14      30.06F WCI  27
PINE BLUFF     CLEAR     37  17  44 NW12      30.08F WCI  29
MONTICELLO     CLEAR     31  20  63 W6        30.07F WCI  25


...NORTH MISSISSIPPI...

CITY           SKY/WX    TMP DP  RH WIND       PRES   REMARKS
TUPELO         CLOUDY    37  16  42 W13G23    29.99S WCI  29
OXFORD         MOCLDY    36  18  48 NW9       30.01F WCI  29
TUNICA         CLOUDY    36  21  55 NW8       30.03F WCI  29
CORINTH        CLOUDY    36  21  55 W14       29.95F WCI  27
GREENWOOD      CLOUDY    40  22  48 NW7       30.05F
COLUMBUS       CLOUDY    40  19  44 NW18G28   29.98F WCI  30
STARKVILLE     CLOUDY    37  23  56 NW6       30.00F WCI  33
GOLDEN TRIANGL CLOUDY    39  19  45 NW10G16   29.98F WCI  32


...SOUTHEAST MISSOURI...

CITY           SKY/WX    TMP DP  RH WIND       PRES   REMARKS
WEST PLAINS    CLOUDY    27  17  66 NW12      29.97F WCI  17
POPLAR BLUFF   CLOUDY    30  16  56 NW16G24   29.95F WCI  19
CAPE GIRARDEAU CLOUDY    28  14  55 NW13      29.94F WCI  17


...NORTHWEST ALABAMA...

CITY           SKY/WX    TMP DP  RH WIND       PRES   REMARKS
MUSCLE SHOALS  CLOUDY    35  20  54 NW17G25   29.93F WCI  25


...MIDDLE TENNESSEE...

CITY           SKY/WX    TMP DP  RH WIND       PRES   REMARKS
NASHVILLE      FLURRIES  27  21  78 NW10      29.89F WCI  17
CLARKSVILLE    FLURRIES  26  20  77 NW8       29.90F WCI  18
COLUMBIA       CLOUDY    30  27  86 NW5       29.88S WCI  25


...WESTERN KENTUCKY...

CITY           SKY/WX    TMP DP  RH WIND       PRES   REMARKS
PADUCAH        CLOUDY    27  19  72 NW8       29.92F WCI  19
FORT CAMPBELL  CLOUDY    26  19  73 NW13      29.89F WCI  15


...CENTRAL ARKANSAS...

CITY           SKY/WX    TMP DP  RH WIND       PRES   REMARKS
LITTLE ROCK    CLEAR     39  16  39 NW17G25   30.08S WCI  30


SKY/WX REPORTED AS FAIR MEANS FEW OR NO CLOUDS BELOW
12 THOUSAND FEET.





USA.gov is the U.S. government's official web portal to all federal, state and local government web resources and services.